Location: Marcé
(47.5801°N, 0.3280°W)
Time: 03:53:08
(UTC+01:00)

Courier 1B - Pass Details

Date: 06 December 2021
Orbit: 962 x 1209 km, 28.3° (Epoch: 26 January)

Event Time Altitude Azimuth Distance (km) Brightness Sun altitude
Rises 20:19:04 0° 245° (WSW) 3,965 11.6 -30.9°
Reaches altitude 10° 20:24:15 10° 215° (SW) 2,937 10.4 -31.7°
Maximum altitude 20:26:27 12° 197° (SSW) 2,790 10.0 -32.1°
Drops below altitude 10° 20:28:38 10° 178° (S) 2,876 9.9 -32.5°
Enters shadow 20:28:41 10° 178° (S) 2,881 9.9 -32.5°
Sets 20:33:33 0° 148° (SSE) 3,763 - -33.3°
